• In Czech Republic
  • List of Countries
  • For 7 days
  • Water Temperature
  • Satellite Maps
  • Weather Map
  • Weather Widgets
  • user-avatar
    Login

    Hourly Weather Madinat 'Isa

    Today, 21 February, Wednesday

    Time Temperature Precipitation Wind Pressure Humidity
    00:00 +19°C° 0 mm 4 mps 760 mmHg 55%
    01:00 +19°C° 0 mm 4 mps 760 mmHg 55%
    02:00 +19°C° 0 mm 5 mps 760 mmHg 55%
    03:00 +19°C° 0 mm 5 mps 760 mmHg 55%
    04:00 +19°C° 0 mm 5 mps 760 mmHg 56%
    05:00 +19°C° 0 mm 5 mps 760 mmHg 56%
    06:00 +19°C° 0 mm 5 mps 760 mmHg 56%
    07:00 +20°C° 0 mm 5 mps 760 mmHg 53%
    08:00 +20°C° 0 mm 4 mps 760 mmHg 50%
    09:00 +21°C° 0 mm 3 mps 760 mmHg 47%
    10:00 +22°C° 0 mm 3 mps 760 mmHg 44%
    11:00 +24°C° 0 mm 3 mps 760 mmHg 41%
    12:00 +25°C° 0 mm 3 mps 760 mmHg 38%
    13:00 +25°C° 0 mm 3 mps 759 mmHg 37%
    14:00 +25°C° 0 mm 3 mps 759 mmHg 37%
    15:00 +25°C° 0 mm 3 mps 758 mmHg 37%
    16:00 +25°C° 0 mm 2 mps 758 mmHg 40%
    17:00 +24°C° 0 mm 2 mps 758 mmHg 43%
    18:00 +23°C° 0 mm 2 mps 758 mmHg 47%
    19:00 +23°C° 0 mm 2 mps 758 mmHg 46%
    20:00 +23°C° 0 mm 2 mps 759 mmHg 46%
    21:00 +23°C° 0 mm 1 mps 759 mmHg 46%
    22:00 +23°C° 0 mm 2 mps 759 mmHg 46%
    23:00 +21°C° 0 mm 2 mps 758 mmHg 46%

    Tomorrow, 22 February, Thursday

    Time Temperature Precipitation Wind Pressure Humidity
    00:00 +21°C° 0 mm 2 mps 758 mmHg 46%
    01:00 +21°C° 0 mm 2 mps 758 mmHg 49%
    02:00 +21°C° 0 mm 3 mps 758 mmHg 51%
    03:00 +21°C° 0 mm 3 mps 757 mmHg 54%
    04:00 +21°C° 0 mm 2 mps 757 mmHg 56%
    05:00 +20°C° 0 mm 2 mps 757 mmHg 59%
    06:00 +20°C° 0 mm 2 mps 757 mmHg 62%
    07:00 +21°C° 0 mm 2 mps 758 mmHg 57%
    08:00 +23°C° 0 mm 2 mps 758 mmHg 51%
    09:00 +25°C° 0 mm 3 mps 758 mmHg 46%
    10:00 +25°C° 0 mm 2 mps 758 mmHg 43%
    11:00 +26°C° 0 mm 2 mps 758 mmHg 40%
    12:00 +27°C° 0 mm 1 mps 758 mmHg 38%
    13:00 +26°C° 0.2 mm 3 mps 758 mmHg 40%
    14:00 +25°C° 0.2 mm 4 mps 757 mmHg 42%
    15:00 +24°C° 0.2 mm 6 mps 757 mmHg 44%
    16:00 +23°C° 0.5 mm 6 mps 757 mmHg 49%
    17:00 +23°C° 0.5 mm 6 mps 757 mmHg 54%
    18:00 +23°C° 0.5 mm 6 mps 758 mmHg 59%
    19:00 +23°C° 0.2 mm 5 mps 758 mmHg 60%
    20:00 +23°C° 0.2 mm 4 mps 757 mmHg 60%
    21:00 +24°C° 0.2 mm 3 mps 757 mmHg 61%
    22:00 +22°C° 0 mm 3 mps 757 mmHg 62%
    23:00 +22°C° 0 mm 3 mps 757 mmHg 62%

    Day after tomorrow, 23 February, Friday

    Time Temperature Precipitation Wind Pressure Humidity
    00:00 +22°C° 0 mm 3 mps 757 mmHg 63%
    01:00 +22°C° 0 mm 3 mps 757 mmHg 65%
    02:00 +21°C° 0 mm 2 mps 756 mmHg 67%
    03:00 +21°C° 0 mm 2 mps 756 mmHg 69%
    04:00 +21°C° 0 mm 2 mps 756 mmHg 71%
    05:00 +20°C° 0 mm 2 mps 756 mmHg 72%
    06:00 +21°C° 0 mm 1 mps 757 mmHg 73%
    07:00 +22°C° 0 mm 1 mps 757 mmHg 68%
    08:00 +23°C° 0 mm 1 mps 757 mmHg 63%
    09:00 +24°C° 0 mm 1 mps 758 mmHg 58%
    10:00 +25°C° 0 mm 1 mps 757 mmHg 54%
    11:00 +26°C° 0 mm 1 mps 757 mmHg 51%
    12:00 +27°C° 0 mm 1 mps 757 mmHg 47%
    13:00 +27°C° 0 mm 2 mps 756 mmHg 46%
    14:00 +27°C° 0 mm 4 mps 756 mmHg 45%
    15:00 +28°C° 0 mm 5 mps 755 mmHg 44%
    16:00 +27°C° 0 mm 5 mps 756 mmHg 48%
    17:00 +26°C° 0 mm 6 mps 756 mmHg 53%
    18:00 +24°C° 0 mm 6 mps 756 mmHg 57%
    19:00 +24°C° 0 mm 6 mps 756 mmHg 58%
    20:00 +23°C° 0 mm 6 mps 756 mmHg 59%
    21:00 +23°C° 0 mm 6 mps 756 mmHg 60%
    22:00 +23°C° 0 mm 5 mps 756 mmHg 60%
    23:00 +23°C° 0 mm 5 mps 756 mmHg 60%

    24 February, Saturday

    Time Temperature Precipitation Wind Pressure Humidity
    00:00 +23°C° 0 mm 5 mps 755 mmHg 61%
    01:00 +22°C° 0 mm 4 mps 755 mmHg 61%
    02:00 +22°C° 0 mm 3 mps 755 mmHg 61%
    03:00 +22°C° 0 mm 3 mps 755 mmHg 61%
    04:00 +22°C° 0.1 mm 3 mps 755 mmHg 61%
    05:00 +22°C° 0.1 mm 3 mps 756 mmHg 62%
    06:00 +22°C° 0.1 mm 3 mps 757 mmHg 62%
    07:00 +22°C° 0.1 mm 3 mps 758 mmHg 59%
    08:00 +23°C° 0.1 mm 4 mps 758 mmHg 55%
    09:00 +25°C° 0.1 mm 4 mps 758 mmHg 52%
    10:00 +26°C° 0.2 mm 4 mps 758 mmHg 49%
    11:00 +27°C° 0.2 mm 4 mps 757 mmHg 47%
    12:00 +27°C° 0.2 mm 4 mps 757 mmHg 44%
    13:00 +28°C° 0.1 mm 4 mps 756 mmHg 44%
    14:00 +28°C° 0.1 mm 4 mps 756 mmHg 43%
    15:00 +28°C° 0.1 mm 4 mps 755 mmHg 43%
    16:00 +27°C° 0 mm 5 mps 755 mmHg 47%
    17:00 +26°C° 0 mm 6 mps 755 mmHg 51%
    18:00 +26°C° 0 mm 6 mps 755 mmHg 55%
    19:00 +24°C° 0 mm 7 mps 755 mmHg 58%
    20:00 +24°C° 0 mm 7 mps 755 mmHg 61%
    21:00 +23°C° 0 mm 7 mps 755 mmHg 65%
    22:00 +23°C° 0 mm 7 mps 755 mmHg 67%
    23:00 +23°C° 0 mm 7 mps 755 mmHg 69%

    25 February, Sunday

    Time Temperature Precipitation Wind Pressure Humidity
    00:00 +23°C° 0 mm 7 mps 754 mmHg 71%
    01:00 +22°C° 1 mm 5 mps 754 mmHg 74%
    02:00 +22°C° 1 mm 4 mps 754 mmHg 77%
    03:00 +23°C° 1 mm 2 mps 755 mmHg 81%
    04:00 +22°C° 0.9 mm 3 mps 755 mmHg 80%
    05:00 +22°C° 0.9 mm 4 mps 755 mmHg 80%
    06:00 +22°C° 0.9 mm 5 mps 756 mmHg 79%
    07:00 +23°C° 0 mm 6 mps 756 mmHg 70%
    08:00 +26°C° 0 mm 6 mps 756 mmHg 60%
    09:00 +27°C° 0 mm 7 mps 756 mmHg 51%
    10:00 +28°C° 0 mm 7 mps 756 mmHg 45%
    11:00 +30°C° 0 mm 7 mps 756 mmHg 39%
    12:00 +32°C° 0 mm 6 mps 755 mmHg 33%
    13:00 +32°C° 0 mm 6 mps 755 mmHg 33%
    14:00 +32°C° 0 mm 5 mps 755 mmHg 33%
    15:00 +32°C° 0 mm 5 mps 754 mmHg 33%
    16:00 +29°C° 0 mm 6 mps 755 mmHg 44%
    17:00 +27°C° 0 mm 8 mps 755 mmHg 56%
    18:00 +24°C° 0 mm 9 mps 756 mmHg 68%
    19:00 +23°C° 0 mm 8 mps 757 mmHg 71%
    20:00 +22°C° 0 mm 7 mps 757 mmHg 74%
    21:00 +21°C° 0 mm 7 mps 758 mmHg 77%
    22:00 +21°C° 0 mm 6 mps 758 mmHg 77%
    23:00 +21°C° 0 mm 6 mps 758 mmHg 77%

    26 February, Monday

    Time Temperature Precipitation Wind Pressure Humidity
    00:00 +20°C° 0 mm 5 mps 758 mmHg 78%
    01:00 +20°C° 0 mm 5 mps 758 mmHg 78%
    02:00 +20°C° 0 mm 5 mps 758 mmHg 77%
    03:00 +20°C° 0 mm 5 mps 758 mmHg 77%
    04:00 +20°C° 0 mm 5 mps 758 mmHg 77%
    05:00 +19°C° 0 mm 4 mps 758 mmHg 77%
    06:00 +19°C° 0 mm 4 mps 758 mmHg 78%
    07:00 +20°C° 0 mm 3 mps 758 mmHg 74%
    08:00 +21°C° 0 mm 3 mps 759 mmHg 71%
    09:00 +21°C° 0 mm 2 mps 759 mmHg 67%
    10:00 +23°C° 0 mm 2 mps 758 mmHg 63%
    11:00 +24°C° 0 mm 2 mps 758 mmHg 59%
    12:00 +24°C° 0 mm 1 mps 757 mmHg 55%
    13:00 +25°C° 0 mm 1 mps 757 mmHg 53%
    14:00 +25°C° 0 mm 2 mps 757 mmHg 50%
    15:00 +25°C° 0 mm 2 mps 756 mmHg 48%
    16:00 +25°C° 0 mm 3 mps 756 mmHg 51%
    17:00 +25°C° 0 mm 3 mps 756 mmHg 53%
    18:00 +23°C° 0 mm 4 mps 756 mmHg 56%
    19:00 +23°C° 0 mm 4 mps 757 mmHg 59%
    20:00 +23°C° 0 mm 4 mps 757 mmHg 62%
    21:00 +23°C° 0 mm 4 mps 757 mmHg 65%
    22:00 +22°C° 0 mm 5 mps 757 mmHg 65%
    23:00 +22°C° 0 mm 5 mps 757 mmHg 66%
    Show more